TimeAKDT,TemperatureF,Dew PointF,Humidity,Sea Level PressureIn,VisibilityMPH,Wind Direction,Wind SpeedMPH,Gust SpeedMPH,PrecipitationIn,Events,Conditions,WindDirDegrees,DateUTC
12:53 AM,55.9,53.1,90,29.57,10.0,Calm,Calm,-,0.03,,Overcast,0,2013-08-24 08:53:00
1:53 AM,55.0,53.1,93,29.59,10.0,Calm,Calm,-,N/A,,Overcast,0,2013-08-24 09:53:00
2:53 AM,54.0,52.0,93,29.59,10.0,Calm,Calm,-,N/A,,Mostly Cloudy,0,2013-08-24 10:53:00
3:53 AM,52.0,50.0,93,29.59,10.0,Calm,Calm,-,N/A,,Scattered Clouds,0,2013-08-24 11:53:00
4:53 AM,53.1,51.1,93,29.59,10.0,Calm,Calm,-,N/A,,Overcast,0,2013-08-24 12:53:00
5:53 AM,53.1,52.0,96,29.60,10.0,NW,4.6,-,N/A,,Mostly Cloudy,320,2013-08-24 13:53:00
6:04 AM,53.6,51.8,94,29.59,3.0,NNW,8.1,-,N/A,,Overcast,340,2013-08-24 14:04:00
6:49 AM,51.8,51.8,100,29.60,0.5,NNE,4.6,-,N/A,Fog,Fog,20,2013-08-24 14:49:00
6:53 AM,52.0,51.1,97,29.61,0.5,North,4.6,-,N/A,Fog,Fog,10,2013-08-24 14:53:00
6:54 AM,51.8,51.8,100,29.61,1.0,North,5.8,-,N/A,,Overcast,10,2013-08-24 14:54:00
6:55 AM,51.8,51.8,100,29.61,1.0,North,5.8,-,N/A,,Overcast,360,2013-08-24 14:55:00
7:53 AM,52.0,50.0,93,29.63,1.5,North,3.5,-,N/A,,Overcast,350,2013-08-24 15:53:00
8:24 AM,51.8,48.2,88,29.63,1.5,Calm,Calm,-,N/A,,Mostly Cloudy,0,2013-08-24 16:24:00
8:26 AM,51.8,50.0,94,29.63,10.0,NNE,3.5,-,N/A,,Mostly Cloudy,20,2013-08-24 16:26:00
8:53 AM,54.0,48.9,83,29.63,10.0,NE,5.8,-,N/A,,Mostly Cloudy,40,2013-08-24 16:53:00
9:00 AM,53.6,48.2,82,29.63,10.0,NE,4.6,-,N/A,,Clear,40,2013-08-24 17:00:00
9:53 AM,55.9,46.9,72,29.64,10.0,Calm,Calm,-,N/A,,Clear,0,2013-08-24 17:53:00
10:53 AM,57.0,46.9,69,29.65,10.0,NNW,4.6,-,N/A,,Partly Cloudy,340,2013-08-24 18:53:00
11:53 AM,61.0,48.9,64,29.65,10.0,Variable,3.5,-,N/A,,Partly Cloudy,0,2013-08-24 19:53:00
12:53 PM,63.0,48.0,58,29.65,10.0,NNW,3.5,-,N/A,,Clear,340,2013-08-24 20:53:00
1:53 PM,66.0,46.9,50,29.64,10.0,Variable,4.6,-,N/A,,Clear,0,2013-08-24 21:53:00
2:53 PM,68.0,44.1,42,29.64,10.0,NNW,8.1,-,N/A,,Clear,340,2013-08-24 22:53:00
3:53 PM,69.1,48.0,47,29.64,10.0,Variable,3.5,-,N/A,,Clear,0,2013-08-24 23:53:00
4:53 PM,68.0,46.0,45,29.64,10.0,Variable,4.6,-,N/A,,Clear,0,2013-08-25 00:53:00
5:53 PM,68.0,44.1,42,29.64,10.0,NNW,4.6,-,N/A,,Clear,340,2013-08-25 01:53:00
6:53 PM,69.1,42.1,38,29.64,10.0,NW,3.5,-,N/A,,Clear,320,2013-08-25 02:53:00
7:53 PM,68.0,43.0,40,29.64,10.0,North,6.9,-,N/A,,Scattered Clouds,350,2013-08-25 03:53:00
8:53 PM,64.9,42.1,43,29.65,10.0,NNW,6.9,-,N/A,,Scattered Clouds,330,2013-08-25 04:53:00
9:53 PM,61.0,46.0,58,29.66,10.0,Calm,Calm,-,N/A,,Clear,0,2013-08-25 05:53:00
10:53 PM,59.0,46.0,62,29.68,10.0,Variable,3.5,-,N/A,,Clear,0,2013-08-25 06:53:00
11:53 PM,55.9,46.0,69,29.70,10.0,Calm,Calm,-,N/A,,Scattered Clouds,0,2013-08-25 07:53:00